Dauntless Aviation
Greetings, Guest! To participate, [sign up for a free account] or [log in]
Airports Europe Germany
EDSW

Altdorf-Wallburg

Altdorf-Wallburg, GERMANY

Airport Info
Edit

Location

Latitude / Longitude: 48°16'11"N / 7°50'31"E
  48°16.188'N / 7°50.532'E
  48.2698 / 7.8422
Satellite photo at:
Airport distance calculator
From:
Weather Reports

METAR

LFST
18.2nm NW
LFST 201930Z AUTO 25004KT 9999 FEW008 18/17 Q1016
EDSB
32.3nm N
EDSB 201950Z 18002KT 9999 VCTS NSC 18/15 Q1015

TAF

EDTL
5.8nm NW
TAF EDTL 201400Z 2015/2024 22005KT 9999 SCT035 PROB30 TEMPO 2015/2019 TSRA SCT020CB
LFST
18.2nm NW
TAF AMD LFST 201857Z 2018/2118 24005KT 9999 SCT040TCU TEMPO 2018/2118 5000 SHRA SCT040CB PROB40 TEMPO 2018/2112 30015G25KT 2000 TSRA BKN010 BKN030CB BECMG 2109/2112 31010KT
EDSB
32.3nm N
TAF EDSB 201700Z 2018/2118 VRB03KT 9999 SCT040 TEMPO 2103/2116 SHRA SCT025CB PROB30 TEMPO 2103/2110 34015G25KT 4000 +TSRA BKN014CB BECMG 2106/2108 22005KT BECMG 2114/2116 29006KT
Safelog

 

Dauntless Aviation

© 2007-2014 Dauntless Aviation, all rights reserved
Information provided via PilotNav comes from a variety of official and unofficial data sources. As errors are possible, do not use PilotNav for primary flight planning purposes. Verify any information that you receive via PilotNav with current and canonical charts and other official documents. The material in this database is subject to database copyrights held by Dauntless Aviation and may not be copied without the express permission of Dauntless Aviation - licenses for use of part of all of this data are available for purchase; enquire via the Dauntless Aviation helpdesk. A number of mechanisms and markers exist in the database to protect against and identify infringement / copyright. Automated queries against this website are stictly prohibited, and all activity is logged and analyzed.